Regional Weather Roundup
Issued by NWS Upton, NY

Current Version | Previous Version | Text Only | Print | Product List | Glossary On
Versions: 1 2 3 4 5 6 7 8 9 10 11 12 13 14 15 16 17 18 19 20 21 22 23 24 25 26 27 28 29 30 31 32 33 34 35 36 37 38 39 40 41 42 43 44 45 46 47 48 49 50
000 ASUS41 KOKX 012005 RWROKX REGIONAL WEATHER ROUNDUP NATIONAL WEATHER SERVICE NEW YORK NY 300 PM EST SUN MAR 01 2015 NOTE: "FAIR" INDICATES FEW OR NO CLOUDS BELOW 12,000 FEET WITH NO SIGNIFICANT WEATHER AND/OR OBSTRUCTIONS TO VISIBILITY. NYZ071-072-176-178-NJZ106-104-012100- NEW YORK CITY METRO AREA CITY SKY/WX TMP DP RH WIND PRES REMARKS CENTRAL PARK SNOW 27 21 78 CALM 30.46F VSB 1/2 LAGUARDIA APRT HVY SNOW 25 21 85 VRB5 30.45F VSB 1/4 WCI 19 KENNEDY INTL SNOW 25 22 88 SW5 30.48F VSB 1/2 WCI 19 NEWARK/LIBERTY SNOW 24 22 91 S3 30.46F VSB 1/2 BRNX BOT. GARD N/A N/A N/A N/A S5 30.45F TETERBORO SNOW 24 21 88 S3 30.45F VSB 1/2 $$ NYZ177-179-078>081-012100- LONG ISLAND NEW YORK CITY SKY/WX TMP DP RH WIND PRES REMARKS FARMINGDALE SNOW 26 23 88 SW6 30.46F VSB 1/2 WCI 19 ISLIP SNOW 28 25 88 S6 30.45F VSB 1/2 WCI 22 SHIRLEY LGT SNOW 28 25 88 S6 30.48F VSB 3/4 WCI 22 WESTHAMPTON SNOW 28 24 85 SW3 30.48F VSB 1/2 MONTAUK POINT N/A 30 26 85 S6 30.49F WCI 24 $$ NYZ052-065-067-012100- HUDSON VALLEY CITY SKY/WX TMP DP RH WIND PRES REMARKS WHITE PLAINS SNOW 24 20 84 SE5 30.41F VSB 1/2 WCI 18 NEWBURGH LGT SNOW 23 21 93 CALM 30.43F VSB 3/4 MONTGOMERY LGT SNOW 22 20 92 CALM 30.40F VSB 3/4 POUGHKEEPSIE LGT SNOW 25 19 78 S8 30.44F VSB 1 WCI 16 ALBANY LGT SNOW 26 16 65 S13 30.37F WCI 15 $$ NJZ001-105-106-008-010-013-015-019>022-104-012100- NEW JERSEY CITY SKY/WX TMP DP RH WIND PRES REMARKS NEWARK/LIBERTY SNOW 24 22 91 S3 30.46F VSB 1/2 TETERBORO SNOW 24 21 88 S3 30.45F VSB 1/2 CALDWELL SNOW 23 19 85 CALM 30.45F VSB 1/2 MORRISTOWN SNOW 23 21 93 CALM 30.46F VSB 1/2 SOMERVILLE HVY SNOW 24 20 84 CALM 30.43F VSB 1/4 SUSSEX LGT SNOW 23 18 81 S6 30.40F VSB 1 WCI 16 ANDOVER N/A 22 18 85 S5 30.40F WCI 16 TRENTON MIX PCPN 24 20 84 SE5 30.43F FOG WCI 18 MILLVILLE FRZ RAIN N/A N/A N/A SE6 30.43F ATLANTIC CITY FRZ RAIN 30 26 85 CALM 30.45F FOG WRIGHTSTOWN LGTSLEET 27 24 89 CALM 30.42F TOMS RIVER CLOUDY 28 25 86 CALM 30.45F BELMAR CLOUDY 27 19 74 CALM 30.44F $$ PAZ047>061-062-071-012100- EASTERN PENNSYLVANIA CITY SKY/WX TMP DP RH WIND PRES REMARKS PHILADELPHIA FRZ RAIN 29 25 85 SE5 30.44F FOG WCI 24 ALLENTOWN LGT SNOW 25 19 80 CALM 30.40F VSB 3/4 SCRANTON LGT SNOW 24 17 74 SW7 30.32F WCI 16 $$ CTZ002-004>006-009-010-012-RIZ004-006-007-MAZ004-011-015-012100- SOUTHERN NEW ENGLAND IN CT CITY SKY/WX TMP DP RH WIND PRES REMARKS BRADLEY INTL LGT SNOW 26 20 77 S10 30.44F WCI 16 HARTFORD SNOW 25 22 88 S5 30.46F VSB 1/2 WCI 19 DANBURY LGT SNOW 24 19 81 SE3 30.43F VSB 3/4 WTRBRY/OXFORD LGT SNOW 23 14 68 SW3 30.41F VSB 1 BRIDGEPORT SNOW 24 22 91 E5 30.47F VSB 1/2 WCI 18 MERIDEN LGT SNOW 25 21 85 S7 30.46F VSB 3/4 WCI 17 NEW HAVEN LGT SNOW 25 20 81 SE5 30.47F VSB 3/4 WCI 19 CHESTER SNOW 27 25 93 S6 30.46F VSB 1/2 WCI 20 GROTON SNOW 26 24 92 S7 30.48F VSB 1/2 WCI 18 WILLIMANTIC LGT SNOW 27 22 81 S6 30.46F WCI 20 IN RI CITY SKY/WX TMP DP RH WIND PRES REMARKS PROVIDENCE LGT SNOW 26 23 88 S8 30.50F FOG WCI 18 BLOCK ISLAND CLOUDY 28 25 86 SW10 30.48F WCI 19 WESTERLY LGT SNOW 27 24 89 S6 30.49F VSB 3/4 WCI 20 IN MA CITY SKY/WX TMP DP RH WIND PRES REMARKS BOSTON CLOUDY 27 18 69 SW13 30.47F WCI 16 WORCESTER LGT SNOW 23 17 78 SW13 30.38F WCI 11 WESTFIELD LGT SNOW 25 18 74 S10 30.43F WCI 15 PROVINCETOWN CLOUDY 27 23 86 SW14 30.51S WCI 15 NANTUCKET CLOUDY 31 20 63 SW10 30.53S WCI 22 $$ ANZ330-335-338-340-345-350-353-355-012100- COASTAL MARINE OBSERVATIONS STATION/POSITION TIME SKY/WX TEMP WIND PRES VSBY WAVE AIR SEA DIR/SP/G HT/PER (UTC) (F) (DEG/KT/KT) (MB) (MI) (FT/S) NY HARB ENTRANCE 2000 27 39 240/ 4/ 6 1031.7 2/ 9 4S FIRE IS NOT AVBL 20S FIRE ISLAND 1900 37 1034.1 2/ 9 23SW MTP 2000 N/A 2/ 9 HUDSON CANYON NOT AVBL EXECUTION ROCKS NOT AVBL WESTERN LI SOUND NOT AVBL CENTRAL LI SOUND NOT AVBL EASTERN LI SOUND NOT AVBL ROBBINS REEF 2000 24 170/ 7/ 8 1030.5 $$ >>>>>>>>>>>>>>>>>>>>>>>>>>>> KEY <<<<<<<<<<<<<<<<<<<<<<<<<<< > < > SKY/WX - SKY CONDITION/PRESENT WEATHER < > TMP - TEMPERATURE IN FAHRENHEIT < > DP - DEWPOINT IN FAHRENHEIT < > RH - RELATIVE HUMIDITY IN PERCENT < > WIND - DIRECTION AND SPEED IN MPH < > PRES - MEAN SEA LEVEL PRESSURE IN INCHES OF HG < > WCI - WIND CHILL INDEX < > VSB - VISIBILITY IN MILES < > HX - HEAT INDEX < > TC - TEMPERATURE IN CELSIUS < > VRB - VARIABLE WIND DIRECTION < > < >>>>>>>>>>>>>>>>>>>>>>>>>>>> KEY <<<<<<<<<<<<<<<<<<<<<<<<<<<

USA.gov is the U.S. government's official web portal to all federal, state and local government web resources and services.